This is the latest recevied weather packets stored in our database for station/object KD2RHT-13. If no packets are shown the sender has not sent any weather packets the latest 10 day(s).
| Time | Temp. | Humidity | Pressure | Rain* | Wind** | Luminosity | Snow |
|---|---|---|---|---|---|---|---|
| 1777684713 | 5° C | 99% | 1014.5 hPa | 1.78 mm | - | 0 W/m² | - |
| 1777684409 | 5° C | 99% | 1014.5 hPa | 0 mm | - | 0 W/m² | - |
| 1777684106 | 5° C | 99% | 1014.5 hPa | 1.27 mm | - | 0 W/m² | - |
| 1777683803 | 5° C | 98% | 1014.5 hPa | 1.78 mm | - | 0 W/m² | - |
| 1777683500 | 5° C | 98% | 1014.5 hPa | 3.05 mm | - | 0 W/m² | - |
| 1777683198 | 5.56° C | 98% | 1014.5 hPa | 3.05 mm | - | 0 W/m² | - |
| 1777682895 | 5.56° C | 97% | 1014.5 hPa | 3.05 mm | - | 0 W/m² | - |
| 1777682590 | 5.56° C | 97% | 1014.5 hPa | 1.27 mm | - | 0 W/m² | - |
| 1777682289 | 5.56° C | 97% | 1014.5 hPa | 1.78 mm | - | 0 W/m² | - |
| 1777681985 | 5.56° C | 96% | 1014.5 hPa | 3.05 mm | - | 0 W/m² | - |
| 1777681681 | 5.56° C | 95% | 1014.2 hPa | 1.78 mm | - | 0 W/m² | - |
| 1777681379 | 6.11° C | 95% | 1014.5 hPa | 3.05 mm | - | 0 W/m² | - |
| 1777681076 | 6.11° C | 93% | 1014.2 hPa | 1.27 mm | - | 0 W/m² | - |
| 1777680774 | 6.11° C | 92% | 1014.2 hPa | 1.78 mm | - | 0 W/m² | - |
| 1777680471 | 6.67° C | 91% | 1014.2 hPa | 1.78 mm | - | 0 W/m² | - |
| 1777680170 | 6.67° C | 90% | 1013.9 hPa | 0 mm | - | 0 W/m² | - |
| 1777679865 | 6.67° C | 88% | 1013.9 hPa | 0 mm | - | 0 W/m² | - |
| 1777679561 | 6.67° C | 86% | 1013.9 hPa | 1.78 mm | - | 0 W/m² | - |
| 1777679256 | 7.22° C | 82% | 1013.9 hPa | 0 mm | - | 2 W/m² | - |
| 1777678953 | 7.78° C | 82% | 1013.5 hPa | 0 mm | - | 3 W/m² | - |
| 1777678652 | 7.78° C | 80% | 1013.9 hPa | 0 mm | - | 2 W/m² | - |
| 1777678350 | 7.78° C | 79% | 1013.9 hPa | 0 mm | - | 3 W/m² | - |
| 1777678050 | 7.78° C | 78% | 1013.5 hPa | 0 mm | - | 5 W/m² | - |
| 1777677747 | 7.78° C | 79% | 1013.5 hPa | 0 mm | - | 6 W/m² | - |
| 1777677445 | 7.78° C | 78% | 1013.5 hPa | 0 mm | - | 9 W/m² | - |
* Rain latest hour (hover to see other rain measurements)
** Current wind speed in m/s (hover to see current wind gust speed)